Regional Weather Roundup
Issued by NWS

Home | Current Version | Previous Version | Text Only | Print | Product List | Glossary On
Versions: 1 2 3 4 5 6 7 8 9 10 11 12 13 14 15 16 17 18 19 20 21 22 23 24 25 26 27 28 29 30 31 32 33 34 35 36 37 38 39 40 41 42 43 44 45 46 47 48 49 50
000
ASUS43 KOAX 212010
RWRNE

WEATHER ROUNDUP FOR NEBRASKA
NATIONAL WEATHER SERVICE OMAHA NE
300 PM CDT SAT OCT 21 2017

NOTES: SATELLITE DATA IS BEING USED TO AUGMENT CLOUD COVER ABOVE
       12000 FEET.
       "FAIR" INDICATES FEW OR NO CLOUDS BELOW 12,000 FEET WITH NO
       SIGNIFICANT WEATHER AND/OR OBSTRUCTIONS TO VISIBILITY.


NEZ001>004-019>022-054>056-212100-
NEBRASKA PANHANDLE

CITY           SKY/WX    TMP DP  RH WIND       PRES   REMARKS
SCOTTSBLUFF    SUNNY     58  15  18 NW25G32   29.94R
ALLIANCE       MOSUNNY   56  19  23 NW21G30   29.90S
CHADRON        SUNNY     58  12  16 NW26G37   29.90S
GORDON         FAIR      56  22  26 NW20G28   29.85S
KIMBALL        SUNNY     54  16  22 W22G33    29.97R
SIDNEY         SUNNY     56  15  20 NW24G32   29.95S
$$

NEZ057>060-069>072-079>082-212100-
SOUTHWEST NEBRASKA

CITY           SKY/WX    TMP DP  RH WIND       PRES   REMARKS
NORTH PLATTE   SUNNY     59  38  45 N15G21    29.90S
IMPERIAL       SUNNY     62  23  22 NW18G28   29.93R
LEXINGTON      CLOUDY    54  41  60 NW18G25   29.92R
MCCOOK         MOSUNNY   62  32  32 N17G26    29.91F
OGALLALA       SUNNY     60  25  26 NW18G25   29.92R
$$

NEZ005>010-023>029-035>040-094-212100-
NORTH CENTRAL NEBRASKA

CITY           SKY/WX    TMP DP  RH WIND       PRES   REMARKS
VALENTINE      SUNNY     57  31  37 NW16G26   29.84R
AINSWORTH      SUNNY     53  36  51 NW21G26   29.85R
BROKEN BOW     CLOUDY    53  39  59 NW18G28   29.88R
O`NEILL        CLOUDY    49  38  65 NW17G24   29.83S
ORD            CLOUDY    50  39  66 NW22G30   29.86R
THEDFORD       MOSUNNY   56  37  48 NW10G16   29.89R
$$

NEZ041-046>049-061>064-073>077-083>087-212100-
SOUTH CENTRAL NEBRASKA

CITY           SKY/WX    TMP DP  RH WIND       PRES   REMARKS
GRAND ISLAND   CLOUDY    58  40  51 NW23G32   29.85R
AURORA         CLOUDY    58  38  47 NW24G31   29.83R
HASTINGS       CLOUDY    60  40  47 N24       29.85R
HEBRON         CLOUDY    64  42  44 NW16G29   29.82R
HOLDREGE       CLOUDY    53  40  62 NW15G28   29.91R
KEARNEY        PTSUNNY   55  39  54 NW25G32   29.88R
YORK           CLOUDY    59  39  47 NW22G32   29.81R
$$

NEZ011>018-030>034-042>045-212100-
NORTHEAST NEBRASKA

CITY           SKY/WX    TMP DP  RH WIND       PRES   REMARKS
NORFOLK        CLOUDY    54  40  59 NW20G32   29.77R
ALBION         CLOUDY    55  40  57 NW22G35   29.82R
BLAIR          CLOUDY    64  53  68 NW16G24   29.69R
COLUMBUS       CLOUDY    58  40  51 NW23G31   29.79R
FREMONT        CLOUDY    61  45  55 NW23G30   29.74R
TEKAMAH        CLOUDY    62  46  55 NW16G28   29.70R
WAYNE          CLOUDY    56  40  54 NW23G29   29.76R
$$

NEZ050>053-065>068-078-088>093-212100-
SOUTHEAST NEBRASKA

CITY           SKY/WX    TMP DP  RH WIND       PRES   REMARKS
LINCOLN        MOSUNNY   66  45  46 NW24G33   29.74R
OMAHA EPPLEY   PTSUNNY   75  62  64 S15       29.66S
BEATRICE       MOSUNNY   70  49  48 NW25      29.75R
FALLS CITY     CLOUDY    74  63  68 S21G29    29.73S
NEBRASKA CITY  CLOUDY    75  64  67 SW25G37   29.69S
PLATTSMOUTH    CLOUDY    74  62  67 SW21G28   29.69R
$$

NEZ044-045-051>053-067-212100-
OMAHA AREA

CITY           SKY/WX    TMP DP  RH WIND       PRES   REMARKS
OMAHA EPPLEY   PTSUNNY   75  62  64 S15       29.66S
BLAIR          CLOUDY    64  53  68 NW16G24   29.69R
FREMONT        CLOUDY    61  45  55 NW23G30   29.74R
MILLARD        CLOUDY    76  62  60 W15G25    29.68R
OFFUTT AFB     PTSUNNY   73  63  72 S8        29.66S
PLATTSMOUTH    CLOUDY    74  62  67 SW21G28   29.69R
WAHOO          MOCLDY    64  44  48 NW17G31   29.73R
$$



USA.gov is the U.S. government's official web portal to all federal, state and local government web resources and services.